Location: Newark
(12.4436°N, 0.6167°W)
Time: 11:02:17
(UTC+00:00)

Vanguard 2 - Pass Details

Date: 13 December 2019
Orbit: 553 x 2938 km, 32.9° (Epoch: 27 January)

Event Time Altitude Azimuth Distance (km) Brightness Sun altitude
Rises 06:48:09 0° 303° (WNW) 6,787 11.7 6.7°
Reaches altitude 10° 06:52:53 10° 306° (NW) 5,710 11.4 7.7°
Maximum altitude 07:10:01 73° 29° (NNE) 2,402 10.3 11.5°
Drops below altitude 10° 07:21:15 10° 113° (ESE) 3,936 14.1 13.9°
Sets 07:23:52 0° 115° (ESE) 4,652 13.5 14.5°
